Park Rapids, MN

1:44 AM CDT on September 20, 2017 (GMT -0500)
Park Rapids Municipal

Weather History for KPKD - January, 2014

Change the Weather History Date:

Monday, January 20, 2014

  Actual Average Record
Temperature  
Mean Temperature -4 °F -  
Max Temperature 17 °F 19 °F 44 °F (1968)
Min Temperature -26 °F -4 °F -42 °F (1996)
Degree Days  
Heating Degree Days 70    
Moisture  
Dew Point -7 °F    
Average Humidity 72    
Maximum Humidity 92    
Minimum Humidity 47    
Precipitation  
Precipitation 0.00 in - - ()
Sea Level Pressure  
Sea Level Pressure 30.15 in    
Wind  
Wind Speed 11 mph (North)    
Max Wind Speed 16 mph    
Max Gust Speed 21 mph    
Visibility 8 miles    
Events Snow    
Averages and records for this station are not official NWS values.
T = Trace of Precipitation, MM = Missing Value Source: NWS Daily Summary

Daily Weather History Graph

Daily Weather History Graph

Search for Another Location

Airport or City:

Trip Planner

Search our weather history database for the weather conditions in past years. The results will help you decide how hot, cold, wet, or windy it might be!

Date:

Astronomy

Jan. 20, 2014 Rise Set
Actual Time 7:57 AM CST 5:05 PM CST
Civil Twilight 7:23 AM CST 5:39 PM CST
Nautical Twilight 6:46 AM CST 6:16 PM CST
Astronomical Twilight 6:10 AM CST 6:52 PM CST
Moon 10:01 PM CST 9:39 AM CST
Length of Visible Light 10h 15m
Length of Day
9h 08m
Waning Gibbous, 82% of the Moon is Illuminated
Jan 20
Waning Gibbous
Jan 23
Last Quarter
Jan 30
New
Feb 6
First Quarter
Feb 14
Full

Hourly Weather History & Observations

Time (CST) Temp. Windchill Dew Point Humidity Pressure Visibility Wind Dir Wind Speed Gust Speed Precip Events Conditions
12:53 AM 17.1 °F 4.3 °F 15.1 °F 92% 29.77 in 10.0 mi North 11.5 mph - N/A   Overcast
1:53 AM 14.0 °F 2.0 °F 10.9 °F 88% 29.81 in 10.0 mi North 9.2 mph - N/A   Overcast
2:31 AM 12.0 °F -1.3 °F 8.1 °F 84% 29.76 in 10.0 mi NNE 10.4 mph - N/A   Overcast
2:53 AM 12.0 °F -2.0 °F 7.0 °F 80% 29.84 in 10.0 mi NNE 11.5 mph - N/A   Overcast
3:10 AM 10.9 °F -1.8 °F 6.1 °F 81% 29.77 in 10.0 mi NNE 9.2 mph - N/A   Overcast
3:53 AM 10.0 °F -4.5 °F 5.0 °F 80% 29.88 in 10.0 mi North 11.5 mph - N/A   Overcast
4:11 AM 9.0 °F -4.2 °F 3.9 °F 80% 29.79 in 10.0 mi NNE 9.2 mph - N/A   Overcast
4:53 AM 8.1 °F -6.2 °F 1.9 °F 76% 29.91 in 10.0 mi North 10.4 mph - N/A   Overcast
5:53 AM 6.1 °F -10.2 °F 1.0 °F 80% 29.95 in 7.0 mi North 12.7 mph - 0.00 in Snow Light Snow
6:53 AM 5.0 °F -12.3 °F -0.9 °F 76% 29.99 in 9.0 mi NNE 13.8 mph - 0.00 in   Overcast
7:30 AM 3.0 °F -14.1 °F -2.0 °F 80% 29.92 in 1.8 mi NNE 12.7 mph - 0.00 in Snow Light Snow
7:43 AM 3.0 °F -14.8 °F -2.0 °F 80% 29.93 in 3.0 mi NNE 13.8 mph - 0.00 in Snow Light Snow
7:51 AM 3.2 °F -12.2 °F -2.2 °F 78% 29.93 in 2.0 mi NNE 10.4 mph 19.6 mph 0.00 in Snow Light Snow
7:53 AM 3.0 °F -10.5 °F -2.0 °F 80% 30.03 in 1.8 mi NNE 8.1 mph 19.6 mph 0.00 in Snow Light Snow
8:40 AM 1.0 °F -15.8 °F -4.0 °F 79% 29.99 in 2.0 mi NNE 11.5 mph 20.7 mph 0.00 in Snow Light Snow
8:53 AM 1.0 °F -15.8 °F -4.0 °F 79% 30.09 in 4.0 mi NE 11.5 mph 18.4 mph 0.00 in Snow Light Snow
9:53 AM -0.9 °F -21.2 °F -9.0 °F 69% 30.15 in 9.0 mi NNE 16.1 mph - 0.00 in   Mostly Cloudy
10:53 AM -0.0 °F -14.2 °F -9.0 °F 66% 30.20 in 10.0 mi NNE 8.1 mph - 0.00 in   Partly Cloudy
11:53 AM -0.0 °F -19.4 °F -9.9 °F 63% 30.22 in 10.0 mi North 15.0 mph - N/A   Clear
12:53 PM -0.0 °F -20.1 °F -11.9 °F 57% 30.26 in 10.0 mi North 16.1 mph - N/A   Clear
1:53 PM 1.0 °F -17.3 °F -13.0 °F 52% 30.29 in 10.0 mi North 13.8 mph - N/A   Clear
2:53 PM -0.9 °F -19.9 °F -16.1 °F 49% 30.34 in 10.0 mi North 13.8 mph - N/A   Clear
3:53 PM -0.9 °F -19.1 °F -17.0 °F 47% 30.40 in 10.0 mi North 12.7 mph - N/A   Clear
4:53 PM -5.1 °F -21.5 °F -16.1 °F 59% 30.43 in 9.0 mi NNW 9.2 mph - N/A   Clear
5:53 PM -8.0 °F -28.0 °F -18.0 °F 61% 30.48 in 10.0 mi NNW 12.7 mph - N/A   Clear
6:53 PM -11.0 °F -29.9 °F -20.0 °F 64% 30.53 in 10.0 mi NW 10.4 mph - N/A   Clear
7:53 PM -13.0 °F -32.4 °F -22.0 °F 64% 30.56 in 10.0 mi NNW 10.4 mph - N/A   Clear
8:53 PM -15.0 °F -35.9 °F -22.0 °F 71% 30.57 in 10.0 mi NW 11.5 mph - N/A   Clear
9:53 PM -18.0 °F -39.7 °F -24.0 °F 74% 30.57 in 10.0 mi NW 11.5 mph - N/A   Clear
10:53 PM -26.0 °F -40.2 °F -31.0 °F 77% 30.59 in 10.0 mi West 4.6 mph - N/A   Clear
11:53 PM -26.0 °F -40.2 °F -31.0 °F 77% 30.58 in 10.0 mi WNW 4.6 mph - N/A   Clear